Black River (Missouri), Williamsville (07062575)

StateMissouriLatestLow (1760 cfs)
RiverBlack RiverRatingObservedEstimated
Updated2020-08-07 11:30 (1 hour ago)Flood - The river is flooding. Obstacles can be treacherous or deadly. The river should be avoided at this stage for casual trips and definitely for the inexperienced. Trips should be attempted only with protective gear and equipment.Flood(none)4990
Discharge1760 cfs (median: 471 cfs)High - The river is high and potentially dangerous, especially for the young and / or inexperienced. Normal stream obstacles are sometimes difficult to navigate. Extended distances can be attempted, but canoe travel may not be advisable.High(none)2640
Height5.41 feetGood - Conditions are ideal for a canoe or kayak. Boats typically will drag on fewer than one-quarter of riffles, if at all, and portages are unnecessary or rare. Normal float lengths can be attempted without a problem.Good(none)1928
TrendSteady (rising over 24 hours)Low - River is low but can still be floated. Some riffles are okay but most come with significant dragging and might need a portage. Float lengths should be reduced to accommodate low flow, dragging, and portages.Low(none)641
USGSExternal icon USGS Site (External icon Google Maps)Poor - River is too low to float comfortably. Most or all riffles will drag or must be portaged and some obstacles (such as slick shelf rock) cause undue problems. Avoid the river at this stage for casual paddling trips.Poor(none)289

Trending Data

Plot Image

Trips for Black River (Missouri), Williamsville (07062575)

DateStartEndDistanceConditionDischargeHeightFishingDetails

A total of 0 rows are displayed.

Condition Descriptions

Fishing Conditions

Fish Species

Notes

Classic Trip List

The classic River Trips application is still available for use. It is updated with the new system using a data retrofit. It is no longer maintained. The original River Trips application is no longer updated (as of 1 Dec 2016) but can be checked for errors or for the condition of the data before it was converted to the new system.

Gauge Data Table

ObservationHeightDischargeMaximum
Discharge
Minimum
Discharge
Mean
Discharge
P05P10P20P25P50
(Median)
P75P80P90P95
2020-08-07 11:30 5.41 1760 2740 (2013) 259 (2012) 672 293 372 376 471 673 713 2140
2020-08-07 10:30 5.41 1760 2740 (2013) 259 (2012) 672 293 372 376 471 673 713 2140
2020-08-07 09:30 5.41 1760 2740 (2013) 259 (2012) 672 293 372 376 471 673 713 2140
2020-08-07 08:30 5.41 1760 2740 (2013) 259 (2012) 672 293 372 376 471 673 713 2140
2020-08-07 07:30 5.41 1760 2740 (2013) 259 (2012) 672 293 372 376 471 673 713 2140
2020-08-07 06:30 5.40 1750 2740 (2013) 259 (2012) 672 293 372 376 471 673 713 2140
2020-08-07 05:30 5.41 1760 2740 (2013) 259 (2012) 672 293 372 376 471 673 713 2140
2020-08-07 04:30 5.41 1760 2740 (2013) 259 (2012) 672 293 372 376 471 673 713 2140
2020-08-07 03:30 5.41 1760 2740 (2013) 259 (2012) 672 293 372 376 471 673 713 2140
2020-08-07 02:30 5.41 1760 2740 (2013) 259 (2012) 672 293 372 376 471 673 713 2140
2020-08-07 01:30 5.41 1760 2740 (2013) 259 (2012) 672 293 372 376 471 673 713 2140
2020-08-07 00:30 5.41 1760 2740 (2013) 259 (2012) 672 293 372 376 471 673 713 2140
2020-08-06 23:30 5.40 1750 1630 (2013) 255 (2012) 587 289 369 376 480 660 729 1390
2020-08-06 22:30 5.41 1760 1630 (2013) 255 (2012) 587 289 369 376 480 660 729 1390
2020-08-06 21:30 5.40 1750 1630 (2013) 255 (2012) 587 289 369 376 480 660 729 1390
2020-08-06 20:30 5.40 1750 1630 (2013) 255 (2012) 587 289 369 376 480 660 729 1390
2020-08-06 19:30 5.40 1750 1630 (2013) 255 (2012) 587 289 369 376 480 660 729 1390
2020-08-06 18:30 5.40 1750 1630 (2013) 255 (2012) 587 289 369 376 480 660 729 1390
2020-08-06 17:30 5.40 1750 1630 (2013) 255 (2012) 587 289 369 376 480 660 729 1390
2020-08-06 16:30 5.40 1750 1630 (2013) 255 (2012) 587 289 369 376 480 660 729 1390
2020-08-06 15:30 5.39 1740 1630 (2013) 255 (2012) 587 289 369 376 480 660 729 1390
2020-08-06 14:30 5.39 1760 1630 (2013) 255 (2012) 587 289 369 376 480 660 729 1390
2020-08-06 13:30 5.39 1760 1630 (2013) 255 (2012) 587 289 369 376 480 660 729 1390
2020-08-06 12:30 5.39 1760 1630 (2013) 255 (2012) 587 289 369 376 480 660 729 1390
2020-08-06 11:30 5.38 1750 1630 (2013) 255 (2012) 587 289 369 376 480 660 729 1390
2020-08-06 10:30 5.38 1750 1630 (2013) 255 (2012) 587 289 369 376 480 660 729 1390
2020-08-06 09:30 5.37 1750 1630 (2013) 255 (2012) 587 289 369 376 480 660 729 1390
2020-08-06 08:30 5.36 1740 1630 (2013) 255 (2012) 587 289 369 376 480 660 729 1390
2020-08-06 07:30 5.35 1730 1630 (2013) 255 (2012) 587 289 369 376 480 660 729 1390
2020-08-06 06:30 5.33 1720 1630 (2013) 255 (2012) 587 289 369 376 480 660 729 1390
2020-08-06 05:30 5.32 1710 1630 (2013) 255 (2012) 587 289 369 376 480 660 729 1390
2020-08-06 04:30 5.29 1690 1630 (2013) 255 (2012) 587 289 369 376 480 660 729 1390
2020-08-06 03:30 5.26 1660 1630 (2013) 255 (2012) 587 289 369 376 480 660 729 1390
2020-08-06 02:30 5.23 1640 1630 (2013) 255 (2012) 587 289 369 376 480 660 729 1390
2020-08-06 01:30 5.20 1620 1630 (2013) 255 (2012) 587 289 369 376 480 660 729 1390
2020-08-06 00:30 5.16 1590 1630 (2013) 255 (2012) 587 289 369 376 480 660 729 1390
2020-08-05 23:30 5.12 1560 782 (2015) 253 (2012) 496 281 361 377 504 569 616 750
2020-08-05 22:30 5.11 1550 782 (2015) 253 (2012) 496 281 361 377 504 569 616 750
2020-08-05 21:30 5.10 1550 782 (2015) 253 (2012) 496 281 361 377 504 569 616 750
2020-08-05 20:30 5.10 1550 782 (2015) 253 (2012) 496 281 361 377 504 569 616 750
2020-08-05 19:30 5.10 1550 782 (2015) 253 (2012) 496 281 361 377 504 569 616 750
2020-08-05 18:30 5.10 1550 782 (2015) 253 (2012) 496 281 361 377 504 569 616 750
2020-08-05 17:30 5.10 1550 782 (2015) 253 (2012) 496 281 361 377 504 569 616 750
2020-08-05 16:30 5.09 1540 782 (2015) 253 (2012) 496 281 361 377 504 569 616 750
2020-08-05 15:30 5.09 1540 782 (2015) 253 (2012) 496 281 361 377 504 569 616 750
2020-08-05 14:30 5.10 1550 782 (2015) 253 (2012) 496 281 361 377 504 569 616 750
2020-08-05 13:30 5.10 1550 782 (2015) 253 (2012) 496 281 361 377 504 569 616 750
2020-08-05 12:30 5.09 1540 782 (2015) 253 (2012) 496 281 361 377 504 569 616 750
2020-08-05 11:30 5.09 1540 782 (2015) 253 (2012) 496 281 361 377 504 569 616 750
2020-08-05 10:30 5.09 1540 782 (2015) 253 (2012) 496 281 361 377 504 569 616 750
2020-08-05 09:30 5.09 1540 782 (2015) 253 (2012) 496 281 361 377 504 569 616 750
2020-08-05 08:30 5.08 1530 782 (2015) 253 (2012) 496 281 361 377 504 569 616 750
2020-08-05 07:30 5.08 1530 782 (2015) 253 (2012) 496 281 361 377 504 569 616 750
2020-08-05 06:30 5.07 1530 782 (2015) 253 (2012) 496 281 361 377 504 569 616 750
2020-08-05 05:30 5.07 1530 782 (2015) 253 (2012) 496 281 361 377 504 569 616 750
2020-08-05 04:30 5.06 1520 782 (2015) 253 (2012) 496 281 361 377 504 569 616 750
2020-08-05 03:30 5.06 1520 782 (2015) 253 (2012) 496 281 361 377 504 569 616 750
2020-08-05 02:30 5.05 1510 782 (2015) 253 (2012) 496 281 361 377 504 569 616 750
2020-08-05 01:30 5.05 1510 782 (2015) 253 (2012) 496 281 361 377 504 569 616 750
2020-08-05 00:30 5.04 1500 782 (2015) 253 (2012) 496 281 361 377 504 569 616 750
2020-08-04 23:30 5.03 1500 928 (2016) 253 (2012) 516 280 357 376 525 554 612 859
2020-08-04 22:30 5.02 1490 928 (2016) 253 (2012) 516 280 357 376 525 554 612 859
2020-08-04 21:30 5.00 1480 928 (2016) 253 (2012) 516 280 357 376 525 554 612 859
2020-08-04 20:30 4.98 1460 928 (2016) 253 (2012) 516 280 357 376 525 554 612 859
2020-08-04 19:30 4.96 1450 928 (2016) 253 (2012) 516 280 357 376 525 554 612 859
2020-08-04 18:30 4.93 1420 928 (2016) 253 (2012) 516 280 357 376 525 554 612 859
2020-08-04 17:30 4.90 1400 928 (2016) 253 (2012) 516 280 357 376 525 554 612 859
2020-08-04 16:30 4.87 1380 928 (2016) 253 (2012) 516 280 357 376 525 554 612 859
2020-08-04 15:30 4.84 1360 928 (2016) 253 (2012) 516 280 357 376 525 554 612 859
2020-08-04 14:30 4.82 1340 928 (2016) 253 (2012) 516 280 357 376 525 554 612 859
2020-08-04 13:30 4.81 1340 928 (2016) 253 (2012) 516 280 357 376 525 554 612 859
2020-08-04 12:30 4.81 1340 928 (2016) 253 (2012) 516 280 357 376 525 554 612 859
2020-08-04 11:30 4.81 1340 928 (2016) 253 (2012) 516 280 357 376 525 554 612 859
2020-08-04 10:30 4.80 1330 928 (2016) 253 (2012) 516 280 357 376 525 554 612 859
2020-08-04 09:30 4.80 1330 928 (2016) 253 (2012) 516 280 357 376 525 554 612 859
2020-08-04 08:30 4.79 1320 928 (2016) 253 (2012) 516 280 357 376 525 554 612 859
2020-08-04 07:30 4.79 1320 928 (2016) 253 (2012) 516 280 357 376 525 554 612 859
2020-08-04 06:30 4.78 1320 928 (2016) 253 (2012) 516 280 357 376 525 554 612 859
2020-08-04 05:30 4.77 1310 928 (2016) 253 (2012) 516 280 357 376 525 554 612 859
2020-08-04 04:30 4.76 1300 928 (2016) 253 (2012) 516 280 357 376 525 554 612 859
2020-08-04 03:30 4.75 1300 928 (2016) 253 (2012) 516 280 357 376 525 554 612 859
2020-08-04 02:30 4.73 1280 928 (2016) 253 (2012) 516 280 357 376 525 554 612 859
2020-08-04 01:30 4.72 1270 928 (2016) 253 (2012) 516 280 357 376 525 554 612 859
2020-08-04 00:30 4.70 1260 928 (2016) 253 (2012) 516 280 357 376 525 554 612 859
2020-08-03 23:30 4.66 1230 963 (2016) 255 (2012) 564 287 364 388 541 657 782 956
2020-08-03 22:30 4.63 1210 963 (2016) 255 (2012) 564 287 364 388 541 657 782 956
2020-08-03 21:30 4.59 1180 963 (2016) 255 (2012) 564 287 364 388 541 657 782 956
2020-08-03 20:30 4.54 1150 963 (2016) 255 (2012) 564 287 364 388 541 657 782 956
2020-08-03 19:30 4.47 1100 963 (2016) 255 (2012) 564 287 364 388 541 657 782 956
2020-08-03 18:30 4.38 1040 963 (2016) 255 (2012) 564 287 364 388 541 657 782 956
2020-08-03 17:30 4.28 979 963 (2016) 255 (2012) 564 287 364 388 541 657 782 956
2020-08-03 16:30 4.18 916 963 (2016) 255 (2012) 564 287 364 388 541 657 782 956
2020-08-03 15:30 4.08 855 963 (2016) 255 (2012) 564 287 364 388 541 657 782 956
2020-08-03 14:30 4.02 819 963 (2016) 255 (2012) 564 287 364 388 541 657 782 956
2020-08-03 13:30 4.00 807 963 (2016) 255 (2012) 564 287 364 388 541 657 782 956
2020-08-03 12:30 3.99 801 963 (2016) 255 (2012) 564 287 364 388 541 657 782 956
2020-08-03 11:30 3.99 801 963 (2016) 255 (2012) 564 287 364 388 541 657 782 956
2020-08-03 10:30 3.99 801 963 (2016) 255 (2012) 564 287 364 388 541 657 782 956
2020-08-03 09:30 3.99 801 963 (2016) 255 (2012) 564 287 364 388 541 657 782 956
2020-08-03 08:30 3.99 801 963 (2016) 255 (2012) 564 287 364 388 541 657 782 956
2020-08-03 07:30 3.99 801 963 (2016) 255 (2012) 564 287 364 388 541 657 782 956
2020-08-03 06:30 3.99 801 963 (2016) 255 (2012) 564 287 364 388 541 657 782 956
2020-08-03 05:30 3.99 801 963 (2016) 255 (2012) 564 287 364 388 541 657 782 956
2020-08-03 04:30 3.99 801 963 (2016) 255 (2012) 564 287 364 388 541 657 782 956
2020-08-03 03:30 3.99 801 963 (2016) 255 (2012) 564 287 364 388 541 657 782 956
2020-08-03 02:30 3.99 801 963 (2016) 255 (2012) 564 287 364 388 541 657 782 956
2020-08-03 01:30 4.00 807 963 (2016) 255 (2012) 564 287 364 388 541 657 782 956
2020-08-03 00:30 4.00 807 963 (2016) 255 (2012) 564 287 364 388 541 657 782 956
2020-08-02 23:30 4.00 807 1750 (2019) 257 (2012) 660 289 373 403 531 850 981 1540
2020-08-02 22:30 4.00 807 1750 (2019) 257 (2012) 660 289 373 403 531 850 981 1540
2020-08-02 21:30 4.00 807 1750 (2019) 257 (2012) 660 289 373 403 531 850 981 1540
2020-08-02 20:30 4.01 813 1750 (2019) 257 (2012) 660 289 373 403 531 850 981 1540
2020-08-02 19:30 4.01 813 1750 (2019) 257 (2012) 660 289 373 403 531 850 981 1540
2020-08-02 18:30 4.01 813 1750 (2019) 257 (2012) 660 289 373 403 531 850 981 1540
2020-08-02 17:30 4.01 813 1750 (2019) 257 (2012) 660 289 373 403 531 850 981 1540
2020-08-02 16:30 4.01 813 1750 (2019) 257 (2012) 660 289 373 403 531 850 981 1540
2020-08-02 15:30 4.01 813 1750 (2019) 257 (2012) 660 289 373 403 531 850 981 1540
2020-08-02 14:30 4.02 819 1750 (2019) 257 (2012) 660 289 373 403 531 850 981 1540
2020-08-02 13:30 4.02 819 1750 (2019) 257 (2012) 660 289 373 403 531 850 981 1540
2020-08-02 12:30 4.02 819 1750 (2019) 257 (2012) 660 289 373 403 531 850 981 1540
2020-08-02 11:30 4.03 825 1750 (2019) 257 (2012) 660 289 373 403 531 850 981 1540
2020-08-02 10:30 4.03 825 1750 (2019) 257 (2012) 660 289 373 403 531 850 981 1540
2020-08-02 09:30 4.03 825 1750 (2019) 257 (2012) 660 289 373 403 531 850 981 1540
2020-08-02 08:30 4.03 825 1750 (2019) 257 (2012) 660 289 373 403 531 850 981 1540
2020-08-02 07:30 4.04 831 1750 (2019) 257 (2012) 660 289 373 403 531 850 981 1540
2020-08-02 06:30 4.04 831 1750 (2019) 257 (2012) 660 289 373 403 531 850 981 1540
2020-08-02 05:30 4.04 831 1750 (2019) 257 (2012) 660 289 373 403 531 850 981 1540
2020-08-02 04:30 4.05 837 1750 (2019) 257 (2012) 660 289 373 403 531 850 981 1540
2020-08-02 03:30 4.05 837 1750 (2019) 257 (2012) 660 289 373 403 531 850 981 1540
2020-08-02 02:30 4.06 843 1750 (2019) 257 (2012) 660 289 373 403 531 850 981 1540
2020-08-02 01:30 4.07 849 1750 (2019) 257 (2012) 660 289 373 403 531 850 981 1540
2020-08-02 00:30 4.07 849 1750 (2019) 257 (2012) 660 289 373 403 531 850 981 1540
2020-08-01 23:30 4.08 855 1780 (2019) 257 (2012) 674 284 382 422 517 625 957 1680
2020-08-01 22:30 4.09 861 1780 (2019) 257 (2012) 674 284 382 422 517 625 957 1680
2020-08-01 21:30 4.10 867 1780 (2019) 257 (2012) 674 284 382 422 517 625 957 1680
2020-08-01 20:30 4.11 873 1780 (2019) 257 (2012) 674 284 382 422 517 625 957 1680
2020-08-01 19:30 4.12 879 1780 (2019) 257 (2012) 674 284 382 422 517 625 957 1680
2020-08-01 18:30 4.13 885 1780 (2019) 257 (2012) 674 284 382 422 517 625 957 1680
2020-08-01 17:30 4.15 898 1780 (2019) 257 (2012) 674 284 382 422 517 625 957 1680
2020-08-01 16:30 4.16 904 1780 (2019) 257 (2012) 674 284 382 422 517 625 957 1680
2020-08-01 15:30 4.18 916 1780 (2019) 257 (2012) 674 284 382 422 517 625 957 1680
2020-08-01 14:30 4.19 922 1780 (2019) 257 (2012) 674 284 382 422 517 625 957 1680
2020-08-01 13:30 4.21 935 1780 (2019) 257 (2012) 674 284 382 422 517 625 957 1680
2020-08-01 12:30 4.23 948 1780 (2019) 257 (2012) 674 284 382 422 517 625 957 1680
2020-08-01 11:30 4.26 967 1780 (2019) 257 (2012) 674 284 382 422 517 625 957 1680
2020-08-01 10:30 4.29 986 1780 (2019) 257 (2012) 674 284 382 422 517 625 957 1680
2020-08-01 09:30 4.32 1010 1780 (2019) 257 (2012) 674 284 382 422 517 625 957 1680
2020-08-01 08:30 4.36 1030 1780 (2019) 257 (2012) 674 284 382 422 517 625 957 1680
2020-08-01 07:30 4.40 1060 1780 (2019) 257 (2012) 674 284 382 422 517 625 957 1680
2020-08-01 06:30 4.44 1080 1780 (2019) 257 (2012) 674 284 382 422 517 625 957 1680
2020-08-01 05:30 4.48 1110 1780 (2019) 257 (2012) 674 284 382 422 517 625 957 1680
2020-08-01 04:30 4.49 1120 1780 (2019) 257 (2012) 674 284 382 422 517 625 957 1680
2020-08-01 03:30 4.50 1120 1780 (2019) 257 (2012) 674 284 382 422 517 625 957 1680
2020-08-01 02:30 4.47 1100 1780 (2019) 257 (2012) 674 284 382 422 517 625 957 1680
2020-08-01 01:30 4.44 1080 1780 (2019) 257 (2012) 674 284 382 422 517 625 957 1680
2020-08-01 00:30 4.43 1080 1780 (2019) 257 (2012) 674 284 382 422 517 625 957 1680
2020-07-31 23:30 4.44 1080 1860 (2017) 257 (2012) 684 285 389 428 515 707 1050 1750
2020-07-31 22:30 4.47 1100 1860 (2017) 257 (2012) 684 285 389 428 515 707 1050 1750
2020-07-31 21:30 4.47 1100 1860 (2017) 257 (2012) 684 285 389 428 515 707 1050 1750
2020-07-31 20:30 4.44 1080 1860 (2017) 257 (2012) 684 285 389 428 515 707 1050 1750
2020-07-31 19:30 4.33 1010 1860 (2017) 257 (2012) 684 285 389 428 515 707 1050 1750
2020-07-31 18:30 4.18 916 1860 (2017) 257 (2012) 684 285 389 428 515 707 1050 1750
2020-07-31 17:30 4.07 849 1860 (2017) 257 (2012) 684 285 389 428 515 707 1050 1750
2020-07-31 16:30 4.04 831 1860 (2017) 257 (2012) 684 285 389 428 515 707 1050 1750
2020-07-31 15:30 4.02 819 1860 (2017) 257 (2012) 684 285 389 428 515 707 1050 1750
2020-07-31 14:30 3.91 754 1860 (2017) 257 (2012) 684 285 389 428 515 707 1050 1750
2020-07-31 13:30 3.89 743 1860 (2017) 257 (2012) 684 285 389 428 515 707 1050 1750
2020-07-31 12:30 3.89 743 1860 (2017) 257 (2012) 684 285 389 428 515 707 1050 1750
2020-07-31 11:30 3.89 743 1860 (2017) 257 (2012) 684 285 389 428 515 707 1050 1750
2020-07-31 10:30 3.87 731 1860 (2017) 257 (2012) 684 285 389 428 515 707 1050 1750
2020-07-31 09:30 3.87 731 1860 (2017) 257 (2012) 684 285 389 428 515 707 1050 1750
2020-07-31 08:30 3.87 731 1860 (2017) 257 (2012) 684 285 389 428 515 707 1050 1750
2020-07-31 07:30 3.87 731 1860 (2017) 257 (2012) 684 285 389 428 515 707 1050 1750
2020-07-31 06:30 3.87 731 1860 (2017) 257 (2012) 684 285 389 428 515 707 1050 1750
2020-07-31 05:30 3.87 731 1860 (2017) 257 (2012) 684 285 389 428 515 707 1050 1750
2020-07-31 04:30 3.87 731 1860 (2017) 257 (2012) 684 285 389 428 515 707 1050 1750
2020-07-31 03:30 3.87 731 1860 (2017) 257 (2012) 684 285 389 428 515 707 1050 1750
2020-07-31 02:30 3.87 731 1860 (2017) 257 (2012) 684 285 389 428 515 707 1050 1750
2020-07-31 01:30 3.86 725 1860 (2017) 257 (2012) 684 285 389 428 515 707 1050 1750
2020-07-31 00:30 3.86 725 1860 (2017) 257 (2012) 684 285 389 428 515 707 1050 1750
2020-07-30 23:30 3.85 720 2000 (2017) 262 (2012) 666 294 399 432 487 747 910 1720
2020-07-30 22:30 3.85 720 2000 (2017) 262 (2012) 666 294 399 432 487 747 910 1720
2020-07-30 21:30 3.84 714 2000 (2017) 262 (2012) 666 294 399 432 487 747 910 1720
2020-07-30 20:30 3.84 714 2000 (2017) 262 (2012) 666 294 399 432 487 747 910 1720
2020-07-30 19:30 3.83 708 2000 (2017) 262 (2012) 666 294 399 432 487 747 910 1720
2020-07-30 18:30 3.82 703 2000 (2017) 262 (2012) 666 294 399 432 487 747 910 1720
2020-07-30 17:30 3.81 697 2000 (2017) 262 (2012) 666 294 399 432 487 747 910 1720
2020-07-30 16:30 3.80 692 2000 (2017) 262 (2012) 666 294 399 432 487 747 910 1720
2020-07-30 15:30 3.80 692 2000 (2017) 262 (2012) 666 294 399 432 487 747 910 1720
2020-07-30 14:30 3.81 697 2000 (2017) 262 (2012) 666 294 399 432 487 747 910 1720
2020-07-30 13:30 3.81 697 2000 (2017) 262 (2012) 666 294 399 432 487 747 910 1720
2020-07-30 12:30 3.82 703 2000 (2017) 262 (2012) 666 294 399 432 487 747 910 1720
2020-07-30 11:30 3.83 708 2000 (2017) 262 (2012) 666 294 399 432 487 747 910 1720
2020-07-30 10:30 3.84 714 2000 (2017) 262 (2012) 666 294 399 432 487 747 910 1720
2020-07-30 09:30 3.85 720 2000 (2017) 262 (2012) 666 294 399 432 487 747 910 1720
2020-07-30 08:30 3.86 725 2000 (2017) 262 (2012) 666 294 399 432 487 747 910 1720
2020-07-30 07:30 3.86 725 2000 (2017) 262 (2012) 666 294 399 432 487 747 910 1720
2020-07-30 06:30 3.85 720 2000 (2017) 262 (2012) 666 294 399 432 487 747 910 1720
2020-07-30 05:30 3.88 737 2000 (2017) 262 (2012) 666 294 399 432 487 747 910 1720
2020-07-30 04:30 3.91 754 2000 (2017) 262 (2012) 666 294 399 432 487 747 910 1720
2020-07-30 03:30 3.86 725 2000 (2017) 262 (2012) 666 294 399 432 487 747 910 1720
2020-07-30 02:30 3.79 686 2000 (2017) 262 (2012) 666 294 399 432 487 747 910 1720
2020-07-30 01:30 3.79 686 2000 (2017) 262 (2012) 666 294 399 432 487 747 910 1720
2020-07-30 00:30 3.81 697 2000 (2017) 262 (2012) 666 294 399 432 487 747 910 1720
2020-07-29 23:30 3.82 703 2080 (2017) 262 (2012) 676 296 407 435 491 789 931 1780
2020-07-29 22:30 3.83 708 2080 (2017) 262 (2012) 676 296 407 435 491 789 931 1780
2020-07-29 21:30 3.84 714 2080 (2017) 262 (2012) 676 296 407 435 491 789 931 1780
2020-07-29 20:30 3.84 714 2080 (2017) 262 (2012) 676 296 407 435 491 789 931 1780
2020-07-29 19:30 3.84 714 2080 (2017) 262 (2012) 676 296 407 435 491 789 931 1780
2020-07-29 18:30 3.84 714 2080 (2017) 262 (2012) 676 296 407 435 491 789 931 1780
2020-07-29 17:30 3.84 714 2080 (2017) 262 (2012) 676 296 407 435 491 789 931 1780
2020-07-29 16:30 3.84 714 2080 (2017) 262 (2012) 676 296 407 435 491 789 931 1780
2020-07-29 15:30 3.84 714 2080 (2017) 262 (2012) 676 296 407 435 491 789 931 1780
2020-07-29 14:30 3.84 714 2080 (2017) 262 (2012) 676 296 407 435 491 789 931 1780
2020-07-29 13:30 3.84 714 2080 (2017) 262 (2012) 676 296 407 435 491 789 931 1780
2020-07-29 12:30 3.84 714 2080 (2017) 262 (2012) 676 296 407 435 491 789 931 1780
2020-07-29 11:30 3.84 714 2080 (2017) 262 (2012) 676 296 407 435 491 789 931 1780
2020-07-29 10:30 3.84 714 2080 (2017) 262 (2012) 676 296 407 435 491 789 931 1780
2020-07-29 09:30 3.83 708 2080 (2017) 262 (2012) 676 296 407 435 491 789 931 1780
2020-07-29 08:30 3.83 708 2080 (2017) 262 (2012) 676 296 407 435 491 789 931 1780
2020-07-29 07:30 3.83 708 2080 (2017) 262 (2012) 676 296 407 435 491 789 931 1780
2020-07-29 06:30 3.83 708 2080 (2017) 262 (2012) 676 296 407 435 491 789 931 1780
2020-07-29 05:30 3.83 708 2080 (2017) 262 (2012) 676 296 407 435 491 789 931 1780
2020-07-29 04:30 3.82 703 2080 (2017) 262 (2012) 676 296 407 435 491 789 931 1780
2020-07-29 03:30 3.82 703 2080 (2017) 262 (2012) 676 296 407 435 491 789 931 1780
2020-07-29 02:30 3.82 703 2080 (2017) 262 (2012) 676 296 407 435 491 789 931 1780
2020-07-29 01:30 3.81 697 2080 (2017) 262 (2012) 676 296 407 435 491 789 931 1780
2020-07-29 00:30 3.81 697 2080 (2017) 262 (2012) 676 296 407 435 491 789 931 1780
2020-07-28 23:30 3.80 692 2480 (2017) 261 (2012) 746 293 405 434 502 955 1020 2060
2020-07-28 22:30 3.79 686 2480 (2017) 261 (2012) 746 293 405 434 502 955 1020 2060
2020-07-28 21:30 3.78 680 2480 (2017) 261 (2012) 746 293 405 434 502 955 1020 2060
2020-07-28 20:30 3.77 675 2480 (2017) 261 (2012) 746 293 405 434 502 955 1020 2060
2020-07-28 19:30 3.75 664 2480 (2017) 261 (2012) 746 293 405 434 502 955 1020 2060
2020-07-28 18:30 3.73 653 2480 (2017) 261 (2012) 746 293 405 434 502 955 1020 2060
2020-07-28 17:30 3.71 642 2480 (2017) 261 (2012) 746 293 405 434 502 955 1020 2060
2020-07-28 16:30 3.69 631 2480 (2017) 261 (2012) 746 293 405 434 502 955 1020 2060
2020-07-28 15:30 3.68 626 2480 (2017) 261 (2012) 746 293 405 434 502 955 1020 2060
2020-07-28 14:30 3.68 626 2480 (2017) 261 (2012) 746 293 405 434 502 955 1020 2060
2020-07-28 13:30 3.68 626 2480 (2017) 261 (2012) 746 293 405 434 502 955 1020 2060
2020-07-28 12:30 3.68 626 2480 (2017) 261 (2012) 746 293 405 434 502 955 1020 2060
2020-07-28 11:30 3.69 631 2480 (2017) 261 (2012) 746 293 405 434 502 955 1020 2060
2020-07-28 10:30 3.69 631 2480 (2017) 261 (2012) 746 293 405 434 502 955 1020 2060
2020-07-28 09:30 3.71 642 2480 (2017) 261 (2012) 746 293 405 434 502 955 1020 2060
2020-07-28 08:30 3.72 647 2480 (2017) 261 (2012) 746 293 405 434 502 955 1020 2060
2020-07-28 07:30 3.72 647 2480 (2017) 261 (2012) 746 293 405 434 502 955 1020 2060
2020-07-28 06:30 3.73 653 2480 (2017) 261 (2012) 746 293 405 434 502 955 1020 2060
2020-07-28 05:30 3.72 647 2480 (2017) 261 (2012) 746 293 405 434 502 955 1020 2060
2020-07-28 04:30 3.72 647 2480 (2017) 261 (2012) 746 293 405 434 502 955 1020 2060
2020-07-28 03:30 3.73 653 2480 (2017) 261 (2012) 746 293 405 434 502 955 1020 2060
2020-07-28 02:30 3.75 664 2480 (2017) 261 (2012) 746 293 405 434 502 955 1020 2060
2020-07-28 01:30 3.76 669 2480 (2017) 261 (2012) 746 293 405 434 502 955 1020 2060
2020-07-28 00:30 3.78 680 2480 (2017) 261 (2012) 746 293 405 434 502 955 1020 2060
2020-07-27 23:30 3.78 680 3000 (2017) 266 (2012) 799 299 411 437 539 871 1030 2460
2020-07-27 22:30 3.75 664 3000 (2017) 266 (2012) 799 299 411 437 539 871 1030 2460
2020-07-27 21:30 3.74 658 3000 (2017) 266 (2012) 799 299 411 437 539 871 1030 2460
2020-07-27 20:30 3.72 647 3000 (2017) 266 (2012) 799 299 411 437 539 871 1030 2460
2020-07-27 19:30 3.68 626 3000 (2017) 266 (2012) 799 299 411 437 539 871 1030 2460
2020-07-27 18:30 3.64 604 3000 (2017) 266 (2012) 799 299 411 437 539 871 1030 2460
2020-07-27 17:30 3.61 589 3000 (2017) 266 (2012) 799 299 411 437 539 871 1030 2460
2020-07-27 16:30 3.58 573 3000 (2017) 266 (2012) 799 299 411 437 539 871 1030 2460
2020-07-27 15:30 3.56 562 3000 (2017) 266 (2012) 799 299 411 437 539 871 1030 2460
2020-07-27 14:30 3.56 562 3000 (2017) 266 (2012) 799 299 411 437 539 871 1030 2460
2020-07-27 13:30 3.56 562 3000 (2017) 266 (2012) 799 299 411 437 539 871 1030 2460
2020-07-27 12:30 3.56 562 3000 (2017) 266 (2012) 799 299 411 437 539 871 1030 2460
2020-07-27 11:30 3.56 562 3000 (2017) 266 (2012) 799 299 411 437 539 871 1030 2460
2020-07-27 10:30 3.56 562 3000 (2017) 266 (2012) 799 299 411 437 539 871 1030 2460
2020-07-27 09:30 3.56 562 3000 (2017) 266 (2012) 799 299 411 437 539 871 1030 2460
2020-07-27 08:30 3.56 562 3000 (2017) 266 (2012) 799 299 411 437 539 871 1030 2460
2020-07-27 07:30 3.56 562 3000 (2017) 266 (2012) 799 299 411 437 539 871 1030 2460
2020-07-27 06:30 3.56 562 3000 (2017) 266 (2012) 799 299 411 437 539 871 1030 2460
2020-07-27 05:30 3.56 562 3000 (2017) 266 (2012) 799 299 411 437 539 871 1030 2460
2020-07-27 04:30 3.56 562 3000 (2017) 266 (2012) 799 299 411 437 539 871 1030 2460
2020-07-27 03:30 3.56 562 3000 (2017) 266 (2012) 799 299 411 437 539 871 1030 2460
2020-07-27 02:30 3.56 562 3000 (2017) 266 (2012) 799 299 411 437 539 871 1030 2460
2020-07-27 01:30 3.56 562 3000 (2017) 266 (2012) 799 299 411 437 539 871 1030 2460
2020-07-27 00:30 3.56 562 3000 (2017) 266 (2012) 799 299 411 437 539 871 1030 2460
2020-07-26 23:30 3.56 562 3180 (2017) 275 (2012) 837 314 425 444 594 796 992 2610
2020-07-26 22:30 3.56 562 3180 (2017) 275 (2012) 837 314 425 444 594 796 992 2610
2020-07-26 21:30 3.56 562 3180 (2017) 275 (2012) 837 314 425 444 594 796 992 2610
2020-07-26 20:30 3.56 562 3180 (2017) 275 (2012) 837 314 425 444 594 796 992 2610
2020-07-26 19:30 3.57 568 3180 (2017) 275 (2012) 837 314 425 444 594 796 992 2610
2020-07-26 18:30 3.57 568 3180 (2017) 275 (2012) 837 314 425 444 594 796 992 2610
2020-07-26 17:30 3.57 568 3180 (2017) 275 (2012) 837 314 425 444 594 796 992 2610
2020-07-26 16:30 3.57 568 3180 (2017) 275 (2012) 837 314 425 444 594 796 992 2610
2020-07-26 15:30 3.57 568 3180 (2017) 275 (2012) 837 314 425 444 594 796 992 2610
2020-07-26 14:30 3.58 573 3180 (2017) 275 (2012) 837 314 425 444 594 796 992 2610
2020-07-26 13:30 3.58 573 3180 (2017) 275 (2012) 837 314 425 444 594 796 992 2610
2020-07-26 12:30 3.58 573 3180 (2017) 275 (2012) 837 314 425 444 594 796 992 2610
2020-07-26 11:30 3.58 573 3180 (2017) 275 (2012) 837 314 425 444 594 796 992 2610
2020-07-26 10:30 3.58 573 3180 (2017) 275 (2012) 837 314 425 444 594 796 992 2610
2020-07-26 09:30 3.58 573 3180 (2017) 275 (2012) 837 314 425 444 594 796 992 2610
2020-07-26 08:30 3.58 573 3180 (2017) 275 (2012) 837 314 425 444 594 796 992 2610
2020-07-26 07:30 3.58 573 3180 (2017) 275 (2012) 837 314 425 444 594 796 992 2610
2020-07-26 06:30 3.58 573 3180 (2017) 275 (2012) 837 314 425 444 594 796 992 2610
2020-07-26 05:30 3.58 573 3180 (2017) 275 (2012) 837 314 425 444 594 796 992 2610
2020-07-26 04:30 3.58 573 3180 (2017) 275 (2012) 837 314 425 444 594 796 992 2610
2020-07-26 03:30 3.58 573 3180 (2017) 275 (2012) 837 314 425 444 594 796 992 2610
2020-07-26 02:30 3.58 573 3180 (2017) 275 (2012) 837 314 425 444 594 796 992 2610
2020-07-26 01:30 3.58 573 3180 (2017) 275 (2012) 837 314 425 444 594 796 992 2610
2020-07-26 00:30 3.58 573 3180 (2017) 275 (2012) 837 314 425 444 594 796 992 2610
2020-07-25 23:30 3.58 573 3250 (2017) 257 (2012) 853 304 429 440 571 890 1070 2660
2020-07-25 22:30 3.58 573 3250 (2017) 257 (2012) 853 304 429 440 571 890 1070 2660
2020-07-25 21:30 3.58 573 3250 (2017) 257 (2012) 853 304 429 440 571 890 1070 2660
2020-07-25 20:30 3.58 573 3250 (2017) 257 (2012) 853 304 429 440 571 890 1070 2660
2020-07-25 19:30 3.59 578 3250 (2017) 257 (2012) 853 304 429 440 571 890 1070 2660
2020-07-25 18:30 3.59 578 3250 (2017) 257 (2012) 853 304 429 440 571 890 1070 2660
2020-07-25 17:30 3.59 578 3250 (2017) 257 (2012) 853 304 429 440 571 890 1070 2660
2020-07-25 16:30 3.59 578 3250 (2017) 257 (2012) 853 304 429 440 571 890 1070 2660
2020-07-25 15:30 3.60 583 3250 (2017) 257 (2012) 853 304 429 440 571 890 1070 2660
2020-07-25 14:30 3.60 583 3250 (2017) 257 (2012) 853 304 429 440 571 890 1070 2660
2020-07-25 13:30 3.60 583 3250 (2017) 257 (2012) 853 304 429 440 571 890 1070 2660
2020-07-25 12:30 3.60 583 3250 (2017) 257 (2012) 853 304 429 440 571 890 1070 2660
2020-07-25 11:30 3.60 583 3250 (2017) 257 (2012) 853 304 429 440 571 890 1070 2660
2020-07-25 10:30 3.61 589 3250 (2017) 257 (2012) 853 304 429 440 571 890 1070 2660
2020-07-25 09:30 3.61 589 3250 (2017) 257 (2012) 853 304 429 440 571 890 1070 2660
2020-07-25 08:30 3.61 589 3250 (2017) 257 (2012) 853 304 429 440 571 890 1070 2660
2020-07-25 07:30 3.61 589 3250 (2017) 257 (2012) 853 304 429 440 571 890 1070 2660
2020-07-25 06:30 3.62 594 3250 (2017) 257 (2012) 853 304 429 440 571 890 1070 2660
2020-07-25 05:30 3.62 594 3250 (2017) 257 (2012) 853 304 429 440 571 890 1070 2660
2020-07-25 04:30 3.63 599 3250 (2017) 257 (2012) 853 304 429 440 571 890 1070 2660
2020-07-25 03:30 3.63 599 3250 (2017) 257 (2012) 853 304 429 440 571 890 1070 2660
2020-07-25 02:30 3.64 604 3250 (2017) 257 (2012) 853 304 429 440 571 890 1070 2660
2020-07-25 01:30 3.65 610 3250 (2017) 257 (2012) 853 304 429 440 571 890 1070 2660
2020-07-25 00:30 3.66 615 3250 (2017) 257 (2012) 853 304 429 440 571 890 1070 2660
2020-07-24 23:30 3.67 620 3310 (2017) 258 (2012) 854 291 397 417 554 954 1100 2700
2020-07-24 22:30 3.69 631 3310 (2017) 258 (2012) 854 291 397 417 554 954 1100 2700
2020-07-24 21:30 3.71 642 3310 (2017) 258 (2012) 854 291 397 417 554 954 1100 2700
2020-07-24 20:30 3.73 653 3310 (2017) 258 (2012) 854 291 397 417 554 954 1100 2700
2020-07-24 19:30 3.76 669 3310 (2017) 258 (2012) 854 291 397 417 554 954 1100 2700
2020-07-24 18:30 3.79 686 3310 (2017) 258 (2012) 854 291 397 417 554 954 1100 2700
2020-07-24 17:30 3.83 708 3310 (2017) 258 (2012) 854 291 397 417 554 954 1100 2700
2020-07-24 16:30 3.86 725 3310 (2017) 258 (2012) 854 291 397 417 554 954 1100 2700
2020-07-24 15:30 3.89 743 3310 (2017) 258 (2012) 854 291 397 417 554 954 1100 2700
2020-07-24 14:30 3.91 754 3310 (2017) 258 (2012) 854 291 397 417 554 954 1100 2700
2020-07-24 13:30 3.92 760 3310 (2017) 258 (2012) 854 291 397 417 554 954 1100 2700
2020-07-24 12:30 3.92 760 3310 (2017) 258 (2012) 854 291 397 417 554 954 1100 2700
2020-07-24 11:30 3.92 760 3310 (2017) 258 (2012) 854 291 397 417 554 954 1100 2700
2020-07-24 10:30 3.92 760 3310 (2017) 258 (2012) 854 291 397 417 554 954 1100 2700
2020-07-24 09:30 3.92 760 3310 (2017) 258 (2012) 854 291 397 417 554 954 1100 2700
2020-07-24 08:30 3.92 760 3310 (2017) 258 (2012) 854 291 397 417 554 954 1100 2700
2020-07-24 07:30 3.92 760 3310 (2017) 258 (2012) 854 291 397 417 554 954 1100 2700
2020-07-24 06:30 3.92 760 3310 (2017) 258 (2012) 854 291 397 417 554 954 1100 2700
2020-07-24 05:30 3.92 760 3310 (2017) 258 (2012) 854 291 397 417 554 954 1100 2700
2020-07-24 04:30 3.92 760 3310 (2017) 258 (2012) 854 291 397 417 554 954 1100 2700
2020-07-24 03:30 3.91 754 3310 (2017) 258 (2012) 854 291 397 417 554 954 1100 2700
2020-07-24 02:30 3.91 754 3310 (2017) 258 (2012) 854 291 397 417 554 954 1100 2700
2020-07-24 01:30 3.92 760 3310 (2017) 258 (2012) 854 291 397 417 554 954 1100 2700
2020-07-24 00:30 3.92 760 3310 (2017) 258 (2012) 854 291 397 417 554 954 1100 2700
2020-07-23 23:30 3.93 766 3370 (2017) 259 (2012) 894 293 396 413 526 1190 1260 2750
2020-07-23 22:30 3.94 772 3370 (2017) 259 (2012) 894 293 396 413 526 1190 1260 2750
2020-07-23 21:30 3.93 766 3370 (2017) 259 (2012) 894 293 396 413 526 1190 1260 2750
2020-07-23 20:30 3.91 754 3370 (2017) 259 (2012) 894 293 396 413 526 1190 1260 2750
2020-07-23 19:30 3.89 743 3370 (2017) 259 (2012) 894 293 396 413 526 1190 1260 2750
2020-07-23 18:30 3.88 737 3370 (2017) 259 (2012) 894 293 396 413 526 1190 1260 2750
2020-07-23 17:30 3.88 737 3370 (2017) 259 (2012) 894 293 396 413 526 1190 1260 2750
2020-07-23 16:30 3.87 731 3370 (2017) 259 (2012) 894 293 396 413 526 1190 1260 2750
2020-07-23 15:30 3.87 731 3370 (2017) 259 (2012) 894 293 396 413 526 1190 1260 2750
2020-07-23 14:30 3.86 725 3370 (2017) 259 (2012) 894 293 396 413 526 1190 1260 2750
2020-07-23 13:30 3.86 725 3370 (2017) 259 (2012) 894 293 396 413 526 1190 1260 2750
2020-07-23 12:30 3.86 725 3370 (2017) 259 (2012) 894 293 396 413 526 1190 1260 2750
2020-07-23 11:30 3.87 731 3370 (2017) 259 (2012) 894 293 396 413 526 1190 1260 2750
2020-07-23 10:30 3.87 731 3370 (2017) 259 (2012) 894 293 396 413 526 1190 1260 2750
2020-07-23 09:30 3.87 731 3370 (2017) 259 (2012) 894 293 396 413 526 1190 1260 2750
2020-07-23 08:30 3.87 731 3370 (2017) 259 (2012) 894 293 396 413 526 1190 1260 2750
2020-07-23 07:30 3.87 731 3370 (2017) 259 (2012) 894 293 396 413 526 1190 1260 2750
2020-07-23 06:30 3.87 731 3370 (2017) 259 (2012) 894 293 396 413 526 1190 1260 2750
2020-07-23 05:30 3.88 737 3370 (2017) 259 (2012) 894 293 396 413 526 1190 1260 2750
2020-07-23 04:30 3.88 737 3370 (2017) 259 (2012) 894 293 396 413 526 1190 1260 2750
2020-07-23 03:30 3.89 743 3370 (2017) 259 (2012) 894 293 396 413 526 1190 1260 2750
2020-07-23 02:30 3.89 743 3370 (2017) 259 (2012) 894 293 396 413 526 1190 1260 2750
2020-07-23 01:30 3.89 743 3370 (2017) 259 (2012) 894 293 396 413 526 1190 1260 2750
2020-07-23 00:30 3.88 737 3370 (2017) 259 (2012) 894 293 396 413 526 1190 1260 2750
2020-07-22 23:30 3.87 731 3420 (2017) 260 (2012) 973 298 410 431 525 1370 1570 2940
2020-07-22 22:30 3.86 725 3420 (2017) 260 (2012) 973 298 410 431 525 1370 1570 2940
2020-07-22 21:30 3.85 720 3420 (2017) 260 (2012) 973 298 410 431 525 1370 1570 2940
2020-07-22 20:30 3.83 708 3420 (2017) 260 (2012) 973 298 410 431 525 1370 1570 2940
2020-07-22 19:30 3.81 697 3420 (2017) 260 (2012) 973 298 410 431 525 1370 1570 2940
2020-07-22 18:30 3.80 692 3420 (2017) 260 (2012) 973 298 410 431 525 1370 1570 2940
2020-07-22 17:30 3.80 692 3420 (2017) 260 (2012) 973 298 410 431 525 1370 1570 2940
2020-07-22 16:30 3.80 692 3420 (2017) 260 (2012) 973 298 410 431 525 1370 1570 2940
2020-07-22 15:30 3.78 680 3420 (2017) 260 (2012) 973 298 410 431 525 1370 1570 2940
2020-07-22 14:30 3.77 675 3420 (2017) 260 (2012) 973 298 410 431 525 1370 1570 2940
2020-07-22 13:30 3.77 675 3420 (2017) 260 (2012) 973 298 410 431 525 1370 1570 2940
2020-07-22 12:30 3.77 675 3420 (2017) 260 (2012) 973 298 410 431 525 1370 1570 2940
2020-07-22 11:30 3.77 675 3420 (2017) 260 (2012) 973 298 410 431 525 1370 1570 2940
2020-07-22 10:30 3.76 669 3420 (2017) 260 (2012) 973 298 410 431 525 1370 1570 2940
2020-07-22 09:30 3.77 675 3420 (2017) 260 (2012) 973 298 410 431 525 1370 1570 2940
2020-07-22 08:30 3.76 669 3420 (2017) 260 (2012) 973 298 410 431 525 1370 1570 2940
2020-07-22 07:30 3.76 669 3420 (2017) 260 (2012) 973 298 410 431 525 1370 1570 2940
2020-07-22 06:30 3.76 669 3420 (2017) 260 (2012) 973 298 410 431 525 1370 1570 2940
2020-07-22 05:30 3.76 669 3420 (2017) 260 (2012) 973 298 410 431 525 1370 1570 2940
2020-07-22 04:30 3.77 675 3420 (2017) 260 (2012) 973 298 410 431 525 1370 1570 2940
2020-07-22 03:30 3.77 675 3420 (2017) 260 (2012) 973 298 410 431 525 1370 1570 2940
2020-07-22 02:30 3.77 675 3420 (2017) 260 (2012) 973 298 410 431 525 1370 1570 2940
2020-07-22 01:30 3.76 669 3420 (2017) 260 (2012) 973 298 410 431 525 1370 1570 2940
2020-07-22 00:30 3.76 669 3420 (2017) 260 (2012) 973 298 410 431 525 1370 1570 2940
2020-07-21 23:30 3.77 675 3470 (2017) 263 (2012) 1080 312 441 463 564 1580 2040 3200
2020-07-21 22:30 3.77 675 3470 (2017) 263 (2012) 1080 312 441 463 564 1580 2040 3200
2020-07-21 21:30 3.77 675 3470 (2017) 263 (2012) 1080 312 441 463 564 1580 2040 3200
2020-07-21 20:30 3.77 675 3470 (2017) 263 (2012) 1080 312 441 463 564 1580 2040 3200
2020-07-21 19:30 3.79 686 3470 (2017) 263 (2012) 1080 312 441 463 564 1580 2040 3200
2020-07-21 18:30 3.76 669 3470 (2017) 263 (2012) 1080 312 441 463 564 1580 2040 3200
2020-07-21 17:30 3.77 675 3470 (2017) 263 (2012) 1080 312 441 463 564 1580 2040 3200
2020-07-21 16:30 3.79 686 3470 (2017) 263 (2012) 1080 312 441 463 564 1580 2040 3200
2020-07-21 15:30 3.76 669 3470 (2017) 263 (2012) 1080 312 441 463 564 1580 2040 3200
2020-07-21 14:30 3.76 669 3470 (2017) 263 (2012) 1080 312 441 463 564 1580 2040 3200
2020-07-21 13:30 3.76 669 3470 (2017) 263 (2012) 1080 312 441 463 564 1580 2040 3200
2020-07-21 12:30 3.76 669 3470 (2017) 263 (2012) 1080 312 441 463 564 1580 2040 3200
2020-07-21 11:30 3.76 669 3470 (2017) 263 (2012) 1080 312 441 463 564 1580 2040 3200
2020-07-21 10:30 3.75 664 3470 (2017) 263 (2012) 1080 312 441 463 564 1580 2040 3200
2020-07-21 09:30 3.75 664 3470 (2017) 263 (2012) 1080 312 441 463 564 1580 2040 3200
2020-07-21 08:30 3.74 658 3470 (2017) 263 (2012) 1080 312 441 463 564 1580 2040 3200
2020-07-21 07:30 3.74 658 3470 (2017) 263 (2012) 1080 312 441 463 564 1580 2040 3200
2020-07-21 06:30 3.74 658 3470 (2017) 263 (2012) 1080 312 441 463 564 1580 2040 3200
2020-07-21 05:30 3.74 658 3470 (2017) 263 (2012) 1080 312 441 463 564 1580 2040 3200
2020-07-21 04:30 3.74 658 3470 (2017) 263 (2012) 1080 312 441 463 564 1580 2040 3200
2020-07-21 03:30 3.73 653 3470 (2017) 263 (2012) 1080 312 441 463 564 1580 2040 3200
2020-07-21 02:30 3.72 647 3470 (2017) 263 (2012) 1080 312 441 463 564 1580 2040 3200
2020-07-21 01:30 3.72 647 3470 (2017) 263 (2012) 1080 312 441 463 564 1580 2040 3200
2020-07-21 00:30 3.71 642 3470 (2017) 263 (2012) 1080 312 441 463 564 1580 2040 3200
2020-07-20 23:30 3.69 631 3390 (2017) 269 (2012) 1130 319 435 442 580 1720 2250 3220
2020-07-20 22:30 3.67 620 3390 (2017) 269 (2012) 1130 319 435 442 580 1720 2250 3220
2020-07-20 21:30 3.65 610 3390 (2017) 269 (2012) 1130 319 435 442 580 1720 2250 3220
2020-07-20 20:30 3.63 599 3390 (2017) 269 (2012) 1130 319 435 442 580 1720 2250 3220
2020-07-20 19:30 3.62 594 3390 (2017) 269 (2012) 1130 319 435 442 580 1720 2250 3220
2020-07-20 18:30 3.60 583 3390 (2017) 269 (2012) 1130 319 435 442 580 1720 2250 3220
2020-07-20 17:30 3.59 578 3390 (2017) 269 (2012) 1130 319 435 442 580 1720 2250 3220
2020-07-20 16:30 3.55 557 3390 (2017) 269 (2012) 1130 319 435 442 580 1720 2250 3220
2020-07-20 15:30 3.49 527 3390 (2017) 269 (2012) 1130 319 435 442 580 1720 2250 3220
2020-07-20 14:30 3.49 527 3390 (2017) 269 (2012) 1130 319 435 442 580 1720 2250 3220
2020-07-20 13:30 3.49 527 3390 (2017) 269 (2012) 1130 319 435 442 580 1720 2250 3220
2020-07-20 12:30 3.49 527 3390 (2017) 269 (2012) 1130 319 435 442 580 1720 2250 3220
2020-07-20 11:30 3.49 527 3390 (2017) 269 (2012) 1130 319 435 442 580 1720 2250 3220
2020-07-20 10:30 3.49 527 3390 (2017) 269 (2012) 1130 319 435 442 580 1720 2250 3220
2020-07-20 09:30 3.49 527 3390 (2017) 269 (2012) 1130 319 435 442 580 1720 2250 3220
2020-07-20 08:30 3.48 522 3390 (2017) 269 (2012) 1130 319 435 442 580 1720 2250 3220
2020-07-20 07:30 3.48 522 3390 (2017) 269 (2012) 1130 319 435 442 580 1720 2250 3220
2020-07-20 06:30 3.48 522 3390 (2017) 269 (2012) 1130 319 435 442 580 1720 2250 3220
2020-07-20 05:30 3.48 522 3390 (2017) 269 (2012) 1130 319 435 442 580 1720 2250 3220
2020-07-20 04:30 3.48 522 3390 (2017) 269 (2012) 1130 319 435 442 580 1720 2250 3220
2020-07-20 03:30 3.48 522 3390 (2017) 269 (2012) 1130 319 435 442 580 1720 2250 3220
2020-07-20 02:30 3.48 522 3390 (2017) 269 (2012) 1130 319 435 442 580 1720 2250 3220
2020-07-20 01:30 3.48 522 3390 (2017) 269 (2012) 1130 319 435 442 580 1720 2250 3220
2020-07-20 00:30 3.48 522 3390 (2017) 269 (2012) 1130 319 435 442 580 1720 2250 3220
2020-07-19 23:30 3.49 527 3390 (2017) 267 (2012) 1170 311 435 454 568 1990 2460 3230
2020-07-19 22:30 3.49 527 3390 (2017) 267 (2012) 1170 311 435 454 568 1990 2460 3230
2020-07-19 21:30 3.49 527 3390 (2017) 267 (2012) 1170 311 435 454 568 1990 2460 3230
2020-07-19 20:30 3.49 527 3390 (2017) 267 (2012) 1170 311 435 454 568 1990 2460 3230
2020-07-19 19:30 3.49 527 3390 (2017) 267 (2012) 1170 311 435 454 568 1990 2460 3230
2020-07-19 18:30 3.50 532 3390 (2017) 267 (2012) 1170 311 435 454 568 1990 2460 3230
2020-07-19 17:30 3.50 532 3390 (2017) 267 (2012) 1170 311 435 454 568 1990 2460 3230
2020-07-19 16:30 3.50 532 3390 (2017) 267 (2012) 1170 311 435 454 568 1990 2460 3230
2020-07-19 15:30 3.50 532 3390 (2017) 267 (2012) 1170 311 435 454 568 1990 2460 3230
2020-07-19 14:30 3.50 532 3390 (2017) 267 (2012) 1170 311 435 454 568 1990 2460 3230
2020-07-19 13:30 3.50 532 3390 (2017) 267 (2012) 1170 311 435 454 568 1990 2460 3230
2020-07-19 12:30 3.51 537 3390 (2017) 267 (2012) 1170 311 435 454 568 1990 2460 3230
2020-07-19 11:30 3.51 537 3390 (2017) 267 (2012) 1170 311 435 454 568 1990 2460 3230
2020-07-19 10:30 3.51 537 3390 (2017) 267 (2012) 1170 311 435 454 568 1990 2460 3230
2020-07-19 09:30 3.51 537 3390 (2017) 267 (2012) 1170 311 435 454 568 1990 2460 3230
2020-07-19 08:30 3.50 532 3390 (2017) 267 (2012) 1170 311 435 454 568 1990 2460 3230
2020-07-19 07:30 3.50 532 3390 (2017) 267 (2012) 1170 311 435 454 568 1990 2460 3230
2020-07-19 06:30 3.50 532 3390 (2017) 267 (2012) 1170 311 435 454 568 1990 2460 3230
2020-07-19 05:30 3.50 532 3390 (2017) 267 (2012) 1170 311 435 454 568 1990 2460 3230
2020-07-19 04:30 3.50 532 3390 (2017) 267 (2012) 1170 311 435 454 568 1990 2460 3230
2020-07-19 03:30 3.50 532 3390 (2017) 267 (2012) 1170 311 435 454 568 1990 2460 3230
2020-07-19 02:30 3.51 537 3390 (2017) 267 (2012) 1170 311 435 454 568 1990 2460 3230
2020-07-19 01:30 3.51 537 3390 (2017) 267 (2012) 1170 311 435 454 568 1990 2460 3230
2020-07-19 00:30 3.51 537 3390 (2017) 267 (2012) 1170 311 435 454 568 1990 2460 3230
2020-07-18 23:30 3.51 537 3430 (2017) 261 (2012) 1230 309 441 456 570 2490 2850 3290
2020-07-18 22:30 3.51 537 3430 (2017) 261 (2012) 1230 309 441 456 570 2490 2850 3290
2020-07-18 21:30 3.51 537 3430 (2017) 261 (2012) 1230 309 441 456 570 2490 2850 3290
2020-07-18 20:30 3.52 542 3430 (2017) 261 (2012) 1230 309 441 456 570 2490 2850 3290
2020-07-18 19:30 3.52 542 3430 (2017) 261 (2012) 1230 309 441 456 570 2490 2850 3290
2020-07-18 18:30 3.52 542 3430 (2017) 261 (2012) 1230 309 441 456 570 2490 2850 3290
2020-07-18 17:30 3.53 547 3430 (2017) 261 (2012) 1230 309 441 456 570 2490 2850 3290
2020-07-18 16:30 3.53 547 3430 (2017) 261 (2012) 1230 309 441 456 570 2490 2850 3290
2020-07-18 15:30 3.54 552 3430 (2017) 261 (2012) 1230 309 441 456 570 2490 2850 3290
2020-07-18 14:30 3.54 552 3430 (2017) 261 (2012) 1230 309 441 456 570 2490 2850 3290
2020-07-18 13:30 3.54 552 3430 (2017) 261 (2012) 1230 309 441 456 570 2490 2850 3290
2020-07-18 12:30 3.54 552 3430 (2017) 261 (2012) 1230 309 441 456 570 2490 2850 3290
2020-07-18 11:30 3.54 552 3430 (2017) 261 (2012) 1230 309 441 456 570 2490 2850 3290
2020-07-18 10:30 3.54 552 3430 (2017) 261 (2012) 1230 309 441 456 570 2490 2850 3290
2020-07-18 09:30 3.54 552 3430 (2017) 261 (2012) 1230 309 441 456 570 2490 2850 3290
2020-07-18 08:30 3.54 552 3430 (2017) 261 (2012) 1230 309 441 456 570 2490 2850 3290
2020-07-18 07:30 3.54 552 3430 (2017) 261 (2012) 1230 309 441 456 570 2490 2850 3290
2020-07-18 06:30 3.54 552 3430 (2017) 261 (2012) 1230 309 441 456 570 2490 2850 3290
2020-07-18 05:30 3.54 552 3430 (2017) 261 (2012) 1230 309 441 456 570 2490 2850 3290
2020-07-18 04:30 3.54 552 3430 (2017) 261 (2012) 1230 309 441 456 570 2490 2850 3290
2020-07-18 03:30 3.54 552 3430 (2017) 261 (2012) 1230 309 441 456 570 2490 2850 3290
2020-07-18 02:30 3.55 557 3430 (2017) 261 (2012) 1230 309 441 456 570 2490 2850 3290
2020-07-18 01:30 3.56 562 3430 (2017) 261 (2012) 1230 309 441 456 570 2490 2850 3290
2020-07-18 00:30 3.56 562 3430 (2017) 261 (2012) 1230 309 441 456 570 2490 2850 3290
2020-07-17 23:30 3.58 573 3560 (2015) 251 (2012) 1260 306 447 463 587 2480 3160 3530
2020-07-17 22:30 3.59 578 3560 (2015) 251 (2012) 1260 306 447 463 587 2480 3160 3530
2020-07-17 21:30 578 3560 (2015) 251 (2012) 1260 306 447 463 587 2480 3160 3530
2020-07-17 20:30 3.59 578 3560 (2015) 251 (2012) 1260 306 447 463 587 2480 3160 3530
2020-07-17 19:30 3.59 578 3560 (2015) 251 (2012) 1260 306 447 463 587 2480 3160 3530
2020-07-17 18:30 3.59 578 3560 (2015) 251 (2012) 1260 306 447 463 587 2480 3160 3530
2020-07-17 17:30 3.60 583 3560 (2015) 251 (2012) 1260 306 447 463 587 2480 3160 3530
2020-07-17 16:30 3.59 578 3560 (2015) 251 (2012) 1260 306 447 463 587 2480 3160 3530
2020-07-17 15:30 3.60 583 3560 (2015) 251 (2012) 1260 306 447 463 587 2480 3160 3530
2020-07-17 14:30 3.65 610 3560 (2015) 251 (2012) 1260 306 447 463 587 2480 3160 3530
2020-07-17 13:30 3.68 626 3560 (2015) 251 (2012) 1260 306 447 463 587 2480 3160 3530
2020-07-17 12:30 3.61 589 3560 (2015) 251 (2012) 1260 306 447 463 587 2480 3160 3530
2020-07-17 11:30 3.56 562 3560 (2015) 251 (2012) 1260 306 447 463 587 2480 3160 3530
2020-07-17 10:30 3.56 562 3560 (2015) 251 (2012) 1260 306 447 463 587 2480 3160 3530
2020-07-17 09:30 3.56 562 3560 (2015) 251 (2012) 1260 306 447 463 587 2480 3160 3530
2020-07-17 08:30 3.55 557 3560 (2015) 251 (2012) 1260 306 447 463 587 2480 3160 3530
2020-07-17 07:30 3.56 562 3560 (2015) 251 (2012) 1260 306 447 463 587 2480 3160 3530
2020-07-17 06:30 3.56 562 3560 (2015) 251 (2012) 1260 306 447 463 587 2480 3160 3530
2020-07-17 05:30 3.56 562 3560 (2015) 251 (2012) 1260 306 447 463 587 2480 3160 3530
2020-07-17 04:30 3.55 557 3560 (2015) 251 (2012) 1260 306 447 463 587 2480 3160 3530
2020-07-17 03:30 3.56 562 3560 (2015) 251 (2012) 1260 306 447 463 587 2480 3160 3530
2020-07-17 02:30 3.56 562 3560 (2015) 251 (2012) 1260 306 447 463 587 2480 3160 3530
2020-07-17 01:30 3.56 562 3560 (2015) 251 (2012) 1260 306 447 463 587 2480 3160 3530
2020-07-17 00:30 3.56 562 3560 (2015) 251 (2012) 1260 306 447 463 587 2480 3160 3530
2020-07-16 23:30 3.56 562 3760 (2015) 253 (2012) 1290 308 449 472 621 2490 3200 3680
2020-07-16 22:30 3.56 562 3760 (2015) 253 (2012) 1290 308 449 472 621 2490 3200 3680
2020-07-16 21:30 3.56 562 3760 (2015) 253 (2012) 1290 308 449 472 621 2490 3200 3680
2020-07-16 20:30 3.56 562 3760 (2015) 253 (2012) 1290 308 449 472 621 2490 3200 3680
2020-07-16 19:30 3.56 562 3760 (2015) 253 (2012) 1290 308 449 472 621 2490 3200 3680
2020-07-16 18:30 3.56 562 3760 (2015) 253 (2012) 1290 308 449 472 621 2490 3200 3680
2020-07-16 17:30 3.56 562 3760 (2015) 253 (2012) 1290 308 449 472 621 2490 3200 3680
2020-07-16 16:30 3.57 568 3760 (2015) 253 (2012) 1290 308 449 472 621 2490 3200 3680
2020-07-16 15:30 3.57 568 3760 (2015) 253 (2012) 1290 308 449 472 621 2490 3200 3680
2020-07-16 14:30 3.57 568 3760 (2015) 253 (2012) 1290 308 449 472 621 2490 3200 3680
2020-07-16 13:30 3.57 568 3760 (2015) 253 (2012) 1290 308 449 472 621 2490 3200 3680
2020-07-16 12:30 3.57 568 3760 (2015) 253 (2012) 1290 308 449 472 621 2490 3200 3680
2020-07-16 11:30 3.57 568 3760 (2015) 253 (2012) 1290 308 449 472 621 2490 3200 3680
2020-07-16 10:30 3.58 573 3760 (2015) 253 (2012) 1290 308 449 472 621 2490 3200 3680
2020-07-16 09:30 3.58 573 3760 (2015) 253 (2012) 1290 308 449 472 621 2490 3200 3680
2020-07-16 08:30 3.58 573 3760 (2015) 253 (2012) 1290 308 449 472 621 2490 3200 3680
2020-07-16 07:30 3.58 573 3760 (2015) 253 (2012) 1290 308 449 472 621 2490 3200 3680
2020-07-16 06:30 3.58 573 3760 (2015) 253 (2012) 1290 308 449 472 621 2490 3200 3680
2020-07-16 05:30 3.58 573 3760 (2015) 253 (2012) 1290 308 449 472 621 2490 3200 3680
2020-07-16 04:30 3.58 573 3760 (2015) 253 (2012) 1290 308 449 472 621 2490 3200 3680
2020-07-16 03:30 3.58 573 3760 (2015) 253 (2012) 1290 308 449 472 621 2490 3200 3680
2020-07-16 02:30 3.58 573 3760 (2015) 253 (2012) 1290 308 449 472 621 2490 3200 3680
2020-07-16 01:30 3.58 573 3760 (2015) 253 (2012) 1290 308 449 472 621 2490 3200 3680
2020-07-16 00:30 3.59 578 3760 (2015) 253 (2012) 1290 308 449 472 621 2490 3200 3680
2020-07-15 23:30 3.59 578 3850 (2015) 254 (2012) 1260 309 453 481 636 2470 3030 3620
2020-07-15 22:30 3.59 578 3850 (2015) 254 (2012) 1260 309 453 481 636 2470 3030 3620
2020-07-15 21:30 3.60 583 3850 (2015) 254 (2012) 1260 309 453 481 636 2470 3030 3620
2020-07-15 20:30 3.60 583 3850 (2015) 254 (2012) 1260 309 453 481 636 2470 3030 3620
2020-07-15 19:30 3.61 589 3850 (2015) 254 (2012) 1260 309 453 481 636 2470 3030 3620
2020-07-15 18:30 3.62 594 3850 (2015) 254 (2012) 1260 309 453 481 636 2470 3030 3620
2020-07-15 17:30 3.62 594 3850 (2015) 254 (2012) 1260 309 453 481 636 2470 3030 3620
2020-07-15 16:30 3.63 599 3850 (2015) 254 (2012) 1260 309 453 481 636 2470 3030 3620
2020-07-15 15:30 3.63 599 3850 (2015) 254 (2012) 1260 309 453 481 636 2470 3030 3620
2020-07-15 14:30 3.63 599 3850 (2015) 254 (2012) 1260 309 453 481 636 2470 3030 3620
2020-07-15 13:30 3.63 599 3850 (2015) 254 (2012) 1260 309 453 481 636 2470 3030 3620
2020-07-15 12:30 3.63 599 3850 (2015) 254 (2012) 1260 309 453 481 636 2470 3030 3620
2020-07-15 11:30 3.63 599 3850 (2015) 254 (2012) 1260 309 453 481 636 2470 3030 3620
2020-07-15 10:30 3.63 599 3850 (2015) 254 (2012) 1260 309 453 481 636 2470 3030 3620
2020-07-15 09:30 3.63 599 3850 (2015) 254 (2012) 1260 309 453 481 636 2470 3030 3620
2020-07-15 08:30 3.63 599 3850 (2015) 254 (2012) 1260 309 453 481 636 2470 3030 3620
2020-07-15 07:30 3.63 599 3850 (2015) 254 (2012) 1260 309 453 481 636 2470 3030 3620
2020-07-15 06:30 3.63 599 3850 (2015) 254 (2012) 1260 309 453 481 636 2470 3030 3620
2020-07-15 05:30 3.63 599 3850 (2015) 254 (2012) 1260 309 453 481 636 2470 3030 3620
2020-07-15 04:30 3.63 599 3850 (2015) 254 (2012) 1260 309 453 481 636 2470 3030 3620
2020-07-15 03:30 3.63 599 3850 (2015) 254 (2012) 1260 309 453 481 636 2470 3030 3620
2020-07-15 02:30 3.63 599 3850 (2015) 254 (2012) 1260 309 453 481 636 2470 3030 3620
2020-07-15 01:30 3.63 599 3850 (2015) 254 (2012) 1260 309 453 481 636 2470 3030 3620
2020-07-15 00:30 3.63 599 3850 (2015) 254 (2012) 1260 309 453 481 636 2470 3030 3620
2020-07-14 23:30 3.63 599 3920 (2015) 253 (2012) 1340 312 456 482 671 2580 3320 3820
2020-07-14 22:30 3.63 599 3920 (2015) 253 (2012) 1340 312 456 482 671 2580 3320 3820
2020-07-14 21:30 3.63 599 3920 (2015) 253 (2012) 1340 312 456 482 671 2580 3320 3820
2020-07-14 20:30 3.63 599 3920 (2015) 253 (2012) 1340 312 456 482 671 2580 3320 3820
2020-07-14 19:30 3.63 599 3920 (2015) 253 (2012) 1340 312 456 482 671 2580 3320 3820
2020-07-14 18:30 3.64 604 3920 (2015) 253 (2012) 1340 312 456 482 671 2580 3320 3820
2020-07-14 17:30 3.64 604 3920 (2015) 253 (2012) 1340 312 456 482 671 2580 3320 3820
2020-07-14 16:30 3.64 604 3920 (2015) 253 (2012) 1340 312 456 482 671 2580 3320 3820
2020-07-14 15:30 3.64 604 3920 (2015) 253 (2012) 1340 312 456 482 671 2580 3320 3820
2020-07-14 14:30 3.64 604 3920 (2015) 253 (2012) 1340 312 456 482 671 2580 3320 3820
2020-07-14 13:30 3.64 604 3920 (2015) 253 (2012) 1340 312 456 482 671 2580 3320 3820
2020-07-14 12:30 3.65 610 3920 (2015) 253 (2012) 1340 312 456 482 671 2580 3320 3820
2020-07-14 11:30 3.65 610 3920 (2015) 253 (2012) 1340 312 456 482 671 2580 3320 3820
2020-07-14 10:30 3.65 610 3920 (2015) 253 (2012) 1340 312 456 482 671 2580 3320 3820
2020-07-14 09:30 3.65 610 3920 (2015) 253 (2012) 1340 312 456 482 671 2580 3320 3820
2020-07-14 08:30 3.65 610 3920 (2015) 253 (2012) 1340 312 456 482 671 2580 3320 3820
2020-07-14 07:30 3.65 610 3920 (2015) 253 (2012) 1340 312 456 482 671 2580 3320 3820
2020-07-14 06:30 3.65 610 3920 (2015) 253 (2012) 1340 312 456 482 671 2580 3320 3820
2020-07-14 05:30 3.65 610 3920 (2015) 253 (2012) 1340 312 456 482 671 2580 3320 3820
2020-07-14 04:30 3.65 610 3920 (2015) 253 (2012) 1340 312 456 482 671 2580 3320 3820
2020-07-14 03:30 3.65 610 3920 (2015) 253 (2012) 1340 312 456 482 671 2580 3320 3820
2020-07-14 02:30 3.65 610 3920 (2015) 253 (2012) 1340 312 456 482 671 2580 3320 3820
2020-07-14 01:30 3.66 615 3920 (2015) 253 (2012) 1340 312 456 482 671 2580 3320 3820
2020-07-14 00:30 3.66 615 3920 (2015) 253 (2012) 1340 312 456 482 671 2580 3320 3820
2020-07-13 23:30 3.67 620 3810 (2015) 249 (2012) 1350 312 460 484 664 2800 3430 3720
2020-07-13 22:30 3.67 620 3810 (2015) 249 (2012) 1350 312 460 484 664 2800 3430 3720
2020-07-13 21:30 3.68 626 3810 (2015) 249 (2012) 1350 312 460 484 664 2800 3430 3720
2020-07-13 20:30 3.68 626 3810 (2015) 249 (2012) 1350 312 460 484 664 2800 3430 3720
2020-07-13 19:30 3.69 631 3810 (2015) 249 (2012) 1350 312 460 484 664 2800 3430 3720
2020-07-13 18:30 3.69 631 3810 (2015) 249 (2012) 1350 312 460 484 664 2800 3430 3720
2020-07-13 17:30 3.70 637 3810 (2015) 249 (2012) 1350 312 460 484 664 2800 3430 3720
2020-07-13 16:30 3.71 642 3810 (2015) 249 (2012) 1350 312 460 484 664 2800 3430 3720
2020-07-13 15:30 3.71 642 3810 (2015) 249 (2012) 1350 312 460 484 664 2800 3430 3720
2020-07-13 14:30 3.72 647 3810 (2015) 249 (2012) 1350 312 460 484 664 2800 3430 3720
2020-07-13 13:30 3.72 647 3810 (2015) 249 (2012) 1350 312 460 484 664 2800 3430 3720
2020-07-13 12:30 3.72 647 3810 (2015) 249 (2012) 1350 312 460 484 664 2800 3430 3720
2020-07-13 11:30 3.72 647 3810 (2015) 249 (2012) 1350 312 460 484 664 2800 3430 3720
2020-07-13 10:30 3.72 647 3810 (2015) 249 (2012) 1350 312 460 484 664 2800 3430 3720
2020-07-13 09:30 3.72 647 3810 (2015) 249 (2012) 1350 312 460 484 664 2800 3430 3720
2020-07-13 08:30 3.72 647 3810 (2015) 249 (2012) 1350 312 460 484 664 2800 3430 3720
2020-07-13 07:30 3.72 647 3810 (2015) 249 (2012) 1350 312 460 484 664 2800 3430 3720
2020-07-13 06:30 3.72 647 3810 (2015) 249 (2012) 1350 312 460 484 664 2800 3430 3720
2020-07-13 05:30 3.71 642 3810 (2015) 249 (2012) 1350 312 460 484 664 2800 3430 3720
2020-07-13 04:30 3.71 642 3810 (2015) 249 (2012) 1350 312 460 484 664 2800 3430 3720
2020-07-13 03:30 3.71 642 3810 (2015) 249 (2012) 1350 312 460 484 664 2800 3430 3720
2020-07-13 02:30 3.71 642 3810 (2015) 249 (2012) 1350 312 460 484 664 2800 3430 3720
2020-07-13 01:30 3.71 642 3810 (2015) 249 (2012) 1350 312 460 484 664 2800 3430 3720
2020-07-13 00:30 3.72 647 3810 (2015) 249 (2012) 1350 312 460 484 664 2800 3430 3720
2020-07-12 23:30 3.72 647 3780 (2015) 251 (2012) 1380 313 467 480 647 2910 3470 3710
2020-07-12 22:30 3.72 647 3780 (2015) 251 (2012) 1380 313 467 480 647 2910 3470 3710
2020-07-12 21:30 3.72 647 3780 (2015) 251 (2012) 1380 313 467 480 647 2910 3470 3710
2020-07-12 20:30 3.72 647 3780 (2015) 251 (2012) 1380 313 467 480 647 2910 3470 3710
2020-07-12 19:30 3.72 647 3780 (2015) 251 (2012) 1380 313 467 480 647 2910 3470 3710
2020-07-12 18:30 3.72 647 3780 (2015) 251 (2012) 1380 313 467 480 647 2910 3470 3710
2020-07-12 17:30 3.73 653 3780 (2015) 251 (2012) 1380 313 467 480 647 2910 3470 3710
2020-07-12 16:30 3.73 653 3780 (2015) 251 (2012) 1380 313 467 480 647 2910 3470 3710
2020-07-12 15:30 3.73 653 3780 (2015) 251 (2012) 1380 313 467 480 647 2910 3470 3710
2020-07-12 14:30 3.73 653 3780 (2015) 251 (2012) 1380 313 467 480 647 2910 3470 3710
2020-07-12 13:30 3.73 653 3780 (2015) 251 (2012) 1380 313 467 480 647 2910 3470 3710
2020-07-12 12:30 3.73 653 3780 (2015) 251 (2012) 1380 313 467 480 647 2910 3470 3710
2020-07-12 11:30 3.74 658 3780 (2015) 251 (2012) 1380 313 467 480 647 2910 3470 3710
2020-07-12 10:30 3.73 653 3780 (2015) 251 (2012) 1380 313 467 480 647 2910 3470 3710
2020-07-12 09:30 3.74 658 3780 (2015) 251 (2012) 1380 313 467 480 647 2910 3470 3710
2020-07-12 08:30 3.74 658 3780 (2015) 251 (2012) 1380 313 467 480 647 2910 3470 3710
2020-07-12 07:30 3.74 658 3780 (2015) 251 (2012) 1380 313 467 480 647 2910 3470 3710
2020-07-12 06:30 3.74 658 3780 (2015) 251 (2012) 1380 313 467 480 647 2910 3470 3710
2020-07-12 05:30 3.74 658 3780 (2015) 251 (2012) 1380 313 467 480 647 2910 3470 3710
2020-07-12 04:30 3.74 658 3780 (2015) 251 (2012) 1380 313 467 480 647 2910 3470 3710
2020-07-12 03:30 3.74 658 3780 (2015) 251 (2012) 1380 313 467 480 647 2910 3470 3710
2020-07-12 02:30 3.74 658 3780 (2015) 251 (2012) 1380 313 467 480 647 2910 3470 3710
2020-07-12 01:30 3.74 658 3780 (2015) 251 (2012) 1380 313 467 480 647 2910 3470 3710
2020-07-12 00:30 3.74 658 3780 (2015) 251 (2012) 1380 313 467 480 647 2910 3470 3710
2020-07-11 23:30 3.74 658 3580 (2017) 252 (2012) 1370 302 446 478 654 2850 3310 3540
2020-07-11 22:30 3.74 658 3580 (2017) 252 (2012) 1370 302 446 478 654 2850 3310 3540
2020-07-11 21:30 3.74 658 3580 (2017) 252 (2012) 1370 302 446 478 654 2850 3310 3540
2020-07-11 20:30 3.75 664 3580 (2017) 252 (2012) 1370 302 446 478 654 2850 3310 3540
2020-07-11 19:30 3.75 664 3580 (2017) 252 (2012) 1370 302 446 478 654 2850 3310 3540
2020-07-11 18:30 3.75 664 3580 (2017) 252 (2012) 1370 302 446 478 654 2850 3310 3540
2020-07-11 17:30 3.75 664 3580 (2017) 252 (2012) 1370 302 446 478 654 2850 3310 3540
2020-07-11 16:30 3.75 664 3580 (2017) 252 (2012) 1370 302 446 478 654 2850 3310 3540
2020-07-11 15:30 3.76 669 3580 (2017) 252 (2012) 1370 302 446 478 654 2850 3310 3540
2020-07-11 14:30 3.76 669 3580 (2017) 252 (2012) 1370 302 446 478 654 2850 3310 3540
2020-07-11 13:30 3.76 669 3580 (2017) 252 (2012) 1370 302 446 478 654 2850 3310 3540
2020-07-11 12:30 3.76 669 3580 (2017) 252 (2012) 1370 302 446 478 654 2850 3310 3540
2020-07-11 11:30 3.76 669 3580 (2017) 252 (2012) 1370 302 446 478 654 2850 3310 3540
2020-07-11 10:30 3.76 669 3580 (2017) 252 (2012) 1370 302 446 478 654 2850 3310 3540
2020-07-11 09:30 3.76 669 3580 (2017) 252 (2012) 1370 302 446 478 654 2850 3310 3540
2020-07-11 08:30 3.76 669 3580 (2017) 252 (2012) 1370 302 446 478 654 2850 3310 3540
2020-07-11 07:30 3.76 669 3580 (2017) 252 (2012) 1370 302 446 478 654 2850 3310 3540
2020-07-11 06:30 3.76 669 3580 (2017) 252 (2012) 1370 302 446 478 654 2850 3310 3540
2020-07-11 05:30 3.77 675 3580 (2017) 252 (2012) 1370 302 446 478 654 2850 3310 3540
2020-07-11 04:30 3.77 675 3580 (2017) 252 (2012) 1370 302 446 478 654 2850 3310 3540
2020-07-11 03:30 3.78 680 3580 (2017) 252 (2012) 1370 302 446 478 654 2850 3310 3540
2020-07-11 02:30 3.78 680 3580 (2017) 252 (2012) 1370 302 446 478 654 2850 3310 3540
2020-07-11 01:30 3.79 686 3580 (2017) 252 (2012) 1370 302 446 478 654 2850 3310 3540
2020-07-11 00:30 3.80 692 3580 (2017) 252 (2012) 1370 302 446 478 654 2850 3310 3540
2020-07-10 23:30 3.80 692 3520 (2017) 257 (2012) 1320 306 450 484 701 2010 2650 3510
2020-07-10 22:30 3.82 703 3520 (2017) 257 (2012) 1320 306 450 484 701 2010 2650 3510
2020-07-10 21:30 3.83 708 3520 (2017) 257 (2012) 1320 306 450 484 701 2010 2650 3510
2020-07-10 20:30 3.85 720 3520 (2017) 257 (2012) 1320 306 450 484 701 2010 2650 3510
2020-07-10 19:30 3.87 731 3520 (2017) 257 (2012) 1320 306 450 484 701 2010 2650 3510
2020-07-10 18:30 3.89 743 3520 (2017) 257 (2012) 1320 306 450 484 701 2010 2650 3510
2020-07-10 17:30 3.91 754 3520 (2017) 257 (2012) 1320 306 450 484 701 2010 2650 3510
2020-07-10 16:30 3.93 766 3520 (2017) 257 (2012) 1320 306 450 484 701 2010 2650 3510
2020-07-10 15:30 3.94 772 3520 (2017) 257 (2012) 1320 306 450 484 701 2010 2650 3510
2020-07-10 14:30 3.94 772 3520 (2017) 257 (2012) 1320 306 450 484 701 2010 2650 3510
2020-07-10 13:30 3.95 777 3520 (2017) 257 (2012) 1320 306 450 484 701 2010 2650 3510
2020-07-10 12:30 3.95 777 3520 (2017) 257 (2012) 1320 306 450 484 701 2010 2650 3510
2020-07-10 11:30 3.95 777 3520 (2017) 257 (2012) 1320 306 450 484 701 2010 2650 3510
2020-07-10 10:30 3.95 777 3520 (2017) 257 (2012) 1320 306 450 484 701 2010 2650 3510
2020-07-10 09:30 3.95 777 3520 (2017) 257 (2012) 1320 306 450 484 701 2010 2650 3510
2020-07-10 08:30 3.95 777 3520 (2017) 257 (2012) 1320 306 450 484 701 2010 2650 3510
2020-07-10 07:30 3.95 777 3520 (2017) 257 (2012) 1320 306 450 484 701 2010 2650 3510
2020-07-10 06:30 3.95 777 3520 (2017) 257 (2012) 1320 306 450 484 701 2010 2650 3510
2020-07-10 05:30 3.95 777 3520 (2017) 257 (2012) 1320 306 450 484 701 2010 2650 3510
2020-07-10 04:30 3.95 777 3520 (2017) 257 (2012) 1320 306 450 484 701 2010 2650 3510
2020-07-10 03:30 3.95 777 3520 (2017) 257 (2012) 1320 306 450 484 701 2010 2650 3510
2020-07-10 02:30 3.95 777 3520 (2017) 257 (2012) 1320 306 450 484 701 2010 2650 3510
2020-07-10 01:30 3.95 777 3520 (2017) 257 (2012) 1320 306 450 484 701 2010 2650 3510
2020-07-10 00:30 3.96 783 3520 (2017) 257 (2012) 1320 306 450 484 701 2010 2650 3510
2020-07-09 23:30 3.96 783 3550 (2011) 256 (2012) 1280 307 454 487 719 1710 2500 3540
2020-07-09 22:30 3.96 783 3550 (2011) 256 (2012) 1280 307 454 487 719 1710 2500 3540
2020-07-09 21:30 3.97 789 3550 (2011) 256 (2012) 1280 307 454 487 719 1710 2500 3540
2020-07-09 20:30 3.97 789 3550 (2011) 256 (2012) 1280 307 454 487 719 1710 2500 3540
2020-07-09 19:30 3.98 795 3550 (2011) 256 (2012) 1280 307 454 487 719 1710 2500 3540
2020-07-09 18:30 3.99 801 3550 (2011) 256 (2012) 1280 307 454 487 719 1710 2500 3540
2020-07-09 17:30 4.00 807 3550 (2011) 256 (2012) 1280 307 454 487 719 1710 2500 3540
2020-07-09 16:30 4.01 813 3550 (2011) 256 (2012) 1280 307 454 487 719 1710 2500 3540
2020-07-09 15:30 4.02 819 3550 (2011) 256 (2012) 1280 307 454 487 719 1710 2500 3540
2020-07-09 14:30 4.02 819 3550 (2011) 256 (2012) 1280 307 454 487 719 1710 2500 3540
2020-07-09 13:30 4.03 825 3550 (2011) 256 (2012) 1280 307 454 487 719 1710 2500 3540
2020-07-09 12:30 4.03 825 3550 (2011) 256 (2012) 1280 307 454 487 719 1710 2500 3540
2020-07-09 11:30 4.03 825 3550 (2011) 256 (2012) 1280 307 454 487 719 1710 2500 3540
2020-07-09 10:30 4.03 825 3550 (2011) 256 (2012) 1280 307 454 487 719 1710 2500 3540
2020-07-09 09:30 4.03 825 3550 (2011) 256 (2012) 1280 307 454 487 719 1710 2500 3540
2020-07-09 08:30 4.03 825 3550 (2011) 256 (2012) 1280 307 454 487 719 1710 2500 3540
2020-07-09 07:30 4.03 825 3550 (2011) 256 (2012) 1280 307 454 487 719 1710 2500 3540
2020-07-09 06:30 4.02 819 3550 (2011) 256 (2012) 1280 307 454 487 719 1710 2500 3540
2020-07-09 05:30 4.02 819 3550 (2011) 256 (2012) 1280 307 454 487 719 1710 2500 3540
2020-07-09 04:30 4.02 819 3550 (2011) 256 (2012) 1280 307 454 487 719 1710 2500 3540
2020-07-09 03:30 4.02 819 3550 (2011) 256 (2012) 1280 307 454 487 719 1710 2500 3540
2020-07-09 02:30 4.02 819 3550 (2011) 256 (2012) 1280 307 454 487 719 1710 2500 3540
2020-07-09 01:30 4.02 819 3550 (2011) 256 (2012) 1280 307 454 487 719 1710 2500 3540
2020-07-09 00:30 4.02 819 3550 (2011) 256 (2012) 1280 307 454 487 719 1710 2500 3540
2020-07-08 23:30 4.02 819 3600 (2011) 255 (2012) 1220 300 447 489 736 1480 2410 3590
2020-07-08 22:30 4.02 819 3600 (2011) 255 (2012) 1220 300 447 489 736 1480 2410 3590
2020-07-08 21:30 4.02 819 3600 (2011) 255 (2012) 1220 300 447 489 736 1480 2410 3590
2020-07-08 20:30 4.03 825 3600 (2011) 255 (2012) 1220 300 447 489 736 1480 2410 3590
2020-07-08 19:30 4.03 825 3600 (2011) 255 (2012) 1220 300 447 489 736 1480 2410 3590
2020-07-08 18:30 4.03 825 3600 (2011) 255 (2012) 1220 300 447 489 736 1480 2410 3590
2020-07-08 17:30 4.03 825 3600 (2011) 255 (2012) 1220 300 447 489 736 1480 2410 3590
2020-07-08 16:30 4.03 825 3600 (2011) 255 (2012) 1220 300 447 489 736 1480 2410 3590
2020-07-08 15:30 4.03 825 3600 (2011) 255 (2012) 1220 300 447 489 736 1480 2410 3590
2020-07-08 14:30 4.04 831 3600 (2011) 255 (2012) 1220 300 447 489 736 1480 2410 3590
2020-07-08 13:30 4.04 831 3600 (2011) 255 (2012) 1220 300 447 489 736 1480 2410 3590
2020-07-08 12:30 4.04 831 3600 (2011) 255 (2012) 1220 300 447 489 736 1480 2410 3590
2020-07-08 11:30 4.04 831 3600 (2011) 255 (2012) 1220 300 447 489 736 1480 2410 3590
2020-07-08 10:30 4.04 831 3600 (2011) 255 (2012) 1220 300 447 489 736 1480 2410 3590
2020-07-08 09:30 4.04 831 3600 (2011) 255 (2012) 1220 300 447 489 736 1480 2410 3590
2020-07-08 08:30 4.04 831 3600 (2011) 255 (2012) 1220 300 447 489 736 1480 2410 3590
2020-07-08 07:30 4.04 831 3600 (2011) 255 (2012) 1220 300 447 489 736 1480 2410 3590
2020-07-08 06:30 4.04 831 3600 (2011) 255 (2012) 1220 300 447 489 736 1480 2410 3590
2020-07-08 05:30 4.03 825 3600 (2011) 255 (2012) 1220 300 447 489 736 1480 2410 3590
2020-07-08 04:30 4.02 819 3600 (2011) 255 (2012) 1220 300 447 489 736 1480 2410 3590
2020-07-08 03:30 4.02 819 3600 (2011) 255 (2012) 1220 300 447 489 736 1480 2410 3590
2020-07-08 02:30 4.02 819 3600 (2011) 255 (2012) 1220 300 447 489 736 1480 2410 3590
2020-07-08 01:30 4.02 819 3600 (2011) 255 (2012) 1220 300 447 489 736 1480 2410 3590
2020-07-08 00:30 4.02 819 3600 (2011) 255 (2012) 1220 300 447 489 736 1480 2410 3590

A total of 732 rows are displayed for years 2008 through 2019.